Weather History for Cleveland Burke, OH

Change the Weather History Date:

Monday, January 16, 2012

  Actual Average Record
Temperature  
Mean Temperature 34 °F -  
Max Temperature 46 °F 30 °F 46 °F (2012)
Min Temperature 23 °F 20 °F -9 °F (2009)
Degree Days  
Heating Degree Days 30    
Moisture  
Dew Point 26 °F    
Average Humidity 65    
Maximum Humidity 83    
Minimum Humidity 49    
Precipitation  
Precipitation 0.00 in - - ()
Sea Level Pressure  
Sea Level Pressure 30.05 in    
Wind  
Wind Speed 17 mph (South)    
Max Wind Speed 26 mph    
Max Gust Speed 38 mph    
Visibility 10 miles    
Events Rain    
Averages and records for this station are not official NWS values.
T = Trace of Precipitation, MM = Missing Value Source: NWS Daily Summary

Daily Weather History Graph

Daily Weather History Graph

Search for Another Location

Airport:

Trip Planner

Search our weather history database for the weather conditions in past years. The results will help you decide how hot, cold, wet, or windy it might be!

Date:

Astronomy

Jan. 16, 2012 Rise Set
Actual Time 7:50 AM EST 5:22 PM EST
Civil Twilight 7:20 AM EST 5:52 PM EST
Nautical Twilight 6:45 AM EST 6:27 PM EST
Astronomical Twilight 6:12 AM EST 7:00 PM EST
Moon 12:56 AM EST (1/16) 11:36 AM EST (1/16)
Length of Visible Light 10h 32m
Length of Day
9h 31m
Waning Gibbous, 46% of the Moon is Illuminated
Jan 16
Waning Gibbous
Jan 23
New
Jan 30
First Quarter
Feb 7
Full
Feb 14
Last Quarter

Hourly Weather History & Observations

Time (EST) Temp. Windchill Dew Point Humidity Pressure Visibility Wind Dir Wind Speed Gust Speed Precip Events Conditions
12:53 AM 24.1 °F 13.7 °F 12.9 °F 62% 30.37 in 10.0 mi SSE 10.4 mph - N/A   Clear
1:53 AM 23.0 °F 15.8 °F 12.9 °F 65% 30.35 in 10.0 mi SSE 5.8 mph - N/A   Clear
2:53 AM 24.1 °F 10.6 °F 12.9 °F 62% 30.31 in 10.0 mi SSE 17.3 mph 25.3 mph N/A   Clear
3:53 AM 24.1 °F 9.8 °F 14.0 °F 65% 30.29 in 10.0 mi SSE 19.6 mph 28.8 mph N/A   Clear
4:53 AM 24.1 °F 10.1 °F 14.0 °F 65% 30.25 in 10.0 mi SSE 18.4 mph 28.8 mph N/A   Clear
5:53 AM 24.1 °F 9.4 °F 14.0 °F 65% 30.20 in 9.0 mi SSE 20.7 mph 29.9 mph N/A   Clear
6:53 AM 26.1 °F 11.3 °F 16.0 °F 66% 30.16 in 10.0 mi SSE 23.0 mph 34.5 mph N/A   Clear
7:53 AM 26.1 °F 10.4 °F 16.0 °F 66% 30.12 in 10.0 mi SSE 26.5 mph 38.0 mph N/A   Clear
8:53 AM 30.0 °F 16.3 °F 18.0 °F 61% 30.11 in 10.0 mi SSE 24.2 mph 32.2 mph N/A   Clear
9:53 AM 34.0 °F 22.1 °F 19.9 °F 56% 30.09 in 10.0 mi SSE 21.9 mph 28.8 mph N/A   Clear
10:53 AM 39.9 °F 30.0 °F 23.0 °F 51% 30.06 in 10.0 mi South 21.9 mph 34.5 mph N/A   Mostly Cloudy
11:53 AM 42.1 °F 33.9 °F 24.1 °F 49% 30.03 in 10.0 mi South 17.3 mph 28.8 mph N/A   Mostly Cloudy
12:53 PM 43.0 °F 34.0 °F 25.0 °F 49% 29.99 in 10.0 mi South 21.9 mph 29.9 mph N/A   Overcast
1:53 PM 44.1 °F 36.5 °F 27.0 °F 51% 29.96 in 10.0 mi South 17.3 mph 27.6 mph N/A   Overcast
2:53 PM 44.1 °F 35.9 °F 28.0 °F 53% 29.94 in 10.0 mi South 19.6 mph 27.6 mph N/A   Overcast
3:53 PM 44.1 °F 35.2 °F 30.0 °F 58% 29.93 in 10.0 mi South 23.0 mph 32.2 mph N/A   Overcast
4:44 PM 44.6 °F 36.4 °F 35.6 °F 71% 29.92 in 10.0 mi South 20.7 mph 28.8 mph N/A   Overcast
4:53 PM 44.1 °F 35.4 °F 35.1 °F 71% 29.94 in 10.0 mi South 21.9 mph 28.8 mph N/A   Overcast
5:53 PM 44.1 °F 37.1 °F 36.0 °F 73% 29.93 in 10.0 mi South 15.0 mph 25.3 mph N/A   Overcast
6:53 PM 45.0 °F 37.4 °F 37.0 °F 74% 29.92 in 10.0 mi South 18.4 mph 26.5 mph N/A   Overcast
7:53 PM 44.1 °F 35.9 °F 39.0 °F 82% 29.90 in 5.0 mi South 19.6 mph 25.3 mph 0.00 in Rain Light Rain
8:53 PM 44.6 °F 36.1 °F 39.2 °F 81% 29.87 in 9.0 mi South 21.9 mph 28.8 mph N/A   Overcast
9:53 PM 46.0 °F 38.8 °F 37.9 °F 73% 29.87 in 10.0 mi South 18.4 mph 28.8 mph N/A   Overcast
10:53 PM 46.9 °F - 39.0 °F 74% 29.87 in 10.0 mi South 20.7 mph 34.5 mph N/A   Overcast
11:53 PM 46.0 °F 38.8 °F 41.0 °F 83% 29.85 in 10.0 mi South 18.4 mph 28.8 mph 0.00 in   Overcast